This demonstration page uses our WeatherBlox Daily Observations layout. Learn more.

Left ArrowRight Arrow

Hourly Observations for October 21, 2021

Temp ( °F °C ) Dew Point ( °F °C ) Humidity (%) Winds ( mph kmh ) Pressure ( in mb ) Visibility ( mi km ) Precip ( " mm )
12:56 am 00:56 Clear 37 2.8 32 undefined 82 82 NW 10 17 30.19 1022 10 16 N/A
1:56 am 01:56 Clear 36 2.2 31 -0.6 82 82 NW 10 17 30.19 1022 10 16 N/A
2:56 am 02:56 Clear 34 1.1 31 -0.6 89 89 WNW 10 17 30.22 1023 10 16 N/A
3:19 am 03:19 Mostly Cloudy 36 2 30 -1 81 81 NW 14 22 30.27 1025 10 16 N/A
3:56 am 03:56 Cloudy 36 2.2 31 -0.6 82 82 WNW 13 20 30.23 1024 10 16 N/A
4:56 am 04:56 Cloudy 36 2.2 32 undefined 86 86 NW 12 19 30.23 1024 10 16 N/A
5:37 am 05:37 Partly Cloudy 36 2 30 -1 81 81 WNW 9 15 30.28 1026 10 16 N/A
5:56 am 05:56 Clear 34 1.1 30 -1.1 85 85 NW 6 9 30.24 1024 10 16 N/A
6:56 am 06:56 Clear 33 0.6 30 -1.1 89 89 NW 7 11 30.25 1024 10 16 N/A
7:56 am 07:56 Sunny 33 0.6 30 -1.1 89 89 NNW 7 11 30.26 1025 10 16 N/A
8:56 am 08:56 Sunny 34 1.1 30 -1.1 85 85 NW 9 15 30.28 1025 10 16 N/A
9:56 am 09:56 Sunny 38 3.3 31 -0.6 76 76 N 13 20 30.29 1026 10 16 N/A
10:56 am 10:56 Sunny 43 6.1 33 0.6 68 68 N 10 17 30.29 1026 10 16 N/A
11:56 am 11:56 Sunny 46 7.8 34 1.1 63 63 NW 10 17 30.29 1026 10 16 N/A
12:56 pm 12:56 Sunny 50 10 33 0.6 52 52 VRB 6 9 30.28 1025 10 16 N/A
1:56 pm 13:56 Sunny 53 11.7 32 undefined 45 45 NNW 7 11 30.24 1024 10 16 N/A
2:56 pm 14:56 Sunny 56 13.3 30 -1.1 37 37 N N/A 30.22 1023 10 16 N/A
3:56 pm 15:56 Sunny 58 14.4 29 -1.7 33 33 VRB 5 7 30.19 1022 10 16 N/A
4:56 pm 16:56 Sunny 58 14.4 29 -1.7 33 33 N N/A 30.19 1022 10 16 N/A
5:56 pm 17:56 Sunny 57 13.9 31 -0.6 37 37 N N/A 30.19 1022 10 16 N/A
6:56 pm 18:56 Clear 51 10.6 32 undefined 48 48 NE 8 13 30.20 1023 8 13 N/A
7:56 pm 19:56 Clear 46 7.8 32 undefined 58 58 ENE 3 6 30.21 1023 10 16 N/A
8:56 pm 20:56 Clear 44 6.7 32 undefined 63 63 E 7 11 30.20 1023 9 14 N/A
9:56 pm 21:56 Clear 42 5.6 31 -0.6 65 65 E 3 6 30.20 1023 10 16 N/A
10:56 pm 22:56 Clear 41 5 32 undefined 70 70 E 3 6 30.20 1023 10 16 N/A
11:56 pm 23:56 Clear 40 4.4 32 undefined 73 73 S 3 6 30.18 1022 10 16 N/A

Powered by AerisWeather